Weather History for Summerville, SC

Change the Weather History Date:

Saturday, May 25, 2013

  Actual Average (KCHS) Record (KCHS)
Temperature  
Mean Temperature 63 °F 75 °F  
Max Temperature 78 °F 85 °F 97 °F (1953)
Min Temperature 48 °F 65 °F 47 °F (1951)
Degree Days  
Heating Degree Days 2 0  
Month to date heating degree days 8  
Since 1 July heating degree days 1971  
Cooling Degree Days 0 10  
Month to date cooling degree days 181  
Year to date cooling degree days 299  
Growing Degree Days 13 (Base 50)    
Moisture  
Dew Point 45 °F    
Average Humidity 58    
Maximum Humidity 100    
Minimum Humidity 24    
Precipitation  
Precipitation 0.00 in 0.11 in 1.83 in (1970)
Month to date precipitation 2.33  
Year to date precipitation 15.62  
Sea Level Pressure  
Sea Level Pressure 30.23 in    
Wind  
Wind Speed 2 mph (North)    
Max Wind Speed 14 mph    
Max Gust Speed 17 mph    
Visibility 10 miles    
Events      
T = Trace of Precipitation, MM = Missing Value Source: NWS Daily Summary

Daily Weather History Graph

Daily Weather History Graph

Search for Another Location

Airport:

Trip Planner

Search our weather history database for the weather conditions in past years. The results will help you decide how hot, cold, wet, or windy it might be!

Date:

Astronomy

May. 25, 2013 Rise Set
Actual Time 6:15 AM EDT 8:20 PM EDT
Civil Twilight 5:47 AM EDT 8:48 PM EDT
Nautical Twilight 5:13 AM EDT 9:22 PM EDT
Astronomical Twilight 4:37 AM EDT 9:59 PM EDT
Moon 9:07 PM EDT (5/25) 6:40 AM EDT (5/25)
Length of Visible Light 15h 00m
Length of Day
14h 05m
Full, 100% of the Moon is Illuminated
May 25
Full
May 31
Last Quarter
Jun 8
New
Jun 16
First Quarter
Jun 23
Full

Hourly Weather History & Observations

Time (EDT) Temp. Dew Point Humidity Pressure Visibility Wind Dir Wind Speed Gust Speed Precip Events Conditions
12:15 AM 55.4 °F 50.0 °F 82% 30.18 in 10.0 mi Calm Calm - N/A   Clear
12:35 AM 53.6 °F 51.8 °F 94% 30.18 in 10.0 mi Calm Calm - N/A   Clear
12:55 AM 53.6 °F 50.0 °F 88% 30.18 in 10.0 mi East 3.5 mph - N/A   Clear
1:15 AM 51.8 °F 50.0 °F 94% 30.18 in 10.0 mi Calm Calm - N/A   Clear
1:35 AM 51.8 °F 50.0 °F 94% 30.17 in 10.0 mi Calm Calm - N/A   Clear
1:55 AM 51.8 °F 51.8 °F 100% 30.18 in 10.0 mi Calm Calm - N/A   Clear
2:15 AM 51.8 °F 51.8 °F 100% 30.18 in 10.0 mi Calm Calm - N/A   Clear
2:35 AM 51.8 °F 50.0 °F 94% 30.18 in 10.0 mi Calm Calm - N/A   Clear
2:55 AM 50.0 °F 50.0 °F 100% 30.18 in 10.0 mi Calm Calm - N/A   Clear
3:15 AM 51.8 °F 50.0 °F 94% 30.18 in 10.0 mi Calm Calm - N/A   Clear
3:35 AM 50.0 °F 50.0 °F 100% 30.18 in 10.0 mi Calm Calm - N/A   Clear
3:55 AM 50.0 °F 50.0 °F 100% 30.19 in 10.0 mi Calm Calm - N/A   Clear
4:15 AM 50.0 °F 50.0 °F 100% 30.19 in 10.0 mi Calm Calm - N/A   Clear
4:35 AM 50.0 °F 48.2 °F 94% 30.20 in 10.0 mi Calm Calm - N/A   Clear
4:55 AM 50.0 °F 48.2 °F 94% 30.22 in 10.0 mi Calm Calm - N/A   Clear
5:15 AM 50.0 °F 48.2 °F 94% 30.22 in 10.0 mi Calm Calm - N/A   Clear
5:35 AM 50.0 °F 46.4 °F 87% 30.23 in 10.0 mi Calm Calm - N/A   Clear
5:55 AM 48.2 °F 46.4 °F 93% 30.23 in 10.0 mi North 3.5 mph - N/A   Clear
6:15 AM 48.2 °F 46.4 °F 93% 30.25 in 10.0 mi North 3.5 mph - N/A   Clear
6:35 AM 48.2 °F 46.4 °F 93% 30.25 in 10.0 mi North 3.5 mph - N/A   Clear
6:55 AM 50.0 °F 46.4 °F 87% 30.26 in 10.0 mi NNE 3.5 mph - N/A   Clear
7:15 AM 50.0 °F 46.4 °F 87% 30.27 in 10.0 mi NNE 3.5 mph - N/A   Clear
7:35 AM 53.6 °F 48.2 °F 82% 30.27 in 10.0 mi Calm Calm - N/A   Clear
7:55 AM 57.2 °F 44.6 °F 63% 30.28 in 10.0 mi NE 3.5 mph - N/A   Clear
8:15 AM 59.0 °F 44.6 °F 59% 30.29 in 10.0 mi NE 3.5 mph - N/A   Clear
8:35 AM 60.8 °F 42.8 °F 52% 30.29 in 10.0 mi ENE 4.6 mph - N/A   Clear
8:55 AM 60.8 °F 42.8 °F 52% 30.30 in 10.0 mi NE 4.6 mph - N/A   Clear
9:15 AM 62.6 °F 44.6 °F 52% 30.31 in 10.0 mi NNE 6.9 mph - N/A   Clear
9:35 AM 64.4 °F 42.8 °F 45% 30.31 in 10.0 mi North 10.4 mph 16.1 mph N/A   Clear
9:55 AM 66.2 °F 42.8 °F 43% 30.31 in 10.0 mi NNE 8.1 mph - N/A   Clear
10:15 AM 66.2 °F 41.0 °F 40% 30.32 in 10.0 mi North 13.8 mph 17.3 mph N/A   Clear
10:35 AM 68.0 °F 41.0 °F 37% 30.31 in 10.0 mi NNE 6.9 mph - N/A   Clear
10:55 AM 68.0 °F 41.0 °F 37% 30.30 in 10.0 mi NNW 10.4 mph - N/A   Clear
11:15 AM 69.8 °F 39.2 °F 33% 30.30 in 10.0 mi North 9.2 mph - N/A   Clear
11:35 AM 69.8 °F 41.0 °F 35% 30.29 in 10.0 mi NNW 9.2 mph - N/A   Clear
11:55 AM 69.8 °F 41.0 °F 35% 30.29 in 10.0 mi North 6.9 mph - N/A   Clear
12:15 PM 71.6 °F 42.8 °F 35% 30.28 in 10.0 mi NNW 5.8 mph - N/A   Clear
12:35 PM 71.6 °F 41.0 °F 33% 30.28 in 10.0 mi NW 3.5 mph - N/A   Clear
12:55 PM 71.6 °F 41.0 °F 33% 30.27 in 10.0 mi NE 3.5 mph - N/A   Clear
1:15 PM 73.4 °F 41.0 °F 31% 30.27 in 10.0 mi NW 8.1 mph - N/A   Clear
1:35 PM 73.4 °F 41.0 °F 31% 30.26 in 10.0 mi North 6.9 mph - N/A   Clear
1:55 PM 75.2 °F 39.2 °F 27% 30.26 in 10.0 mi North 6.9 mph - N/A   Clear
2:15 PM 75.2 °F 37.4 °F 25% 30.25 in 10.0 mi Calm Calm - N/A   Clear
2:35 PM 77.0 °F 41.0 °F 28% 30.25 in 10.0 mi NW 4.6 mph - N/A   Clear
2:55 PM 75.2 °F 39.2 °F 27% 30.22 in 10.0 mi South 3.5 mph - N/A   Clear
3:15 PM 77.0 °F 39.2 °F 26% 30.22 in 10.0 mi Calm Calm - N/A   Clear
3:35 PM 78.8 °F 39.2 °F 24% 30.21 in 10.0 mi Calm Calm - N/A   Clear
3:55 PM 78.8 °F 41.0 °F 26% 30.20 in 10.0 mi West 3.5 mph - N/A   Clear
4:15 PM 77.0 °F 41.0 °F 28% 30.20 in 10.0 mi Calm Calm - N/A   Clear
4:35 PM 78.8 °F 41.0 °F 26% 30.19 in 10.0 mi WNW 5.8 mph - N/A   Clear
4:55 PM 78.8 °F 41.0 °F 26% 30.19 in 10.0 mi North 6.9 mph - N/A   Clear
5:15 PM 78.8 °F 41.0 °F 26% 30.19 in 10.0 mi Calm Calm - N/A   Clear
5:35 PM 78.8 °F 42.8 °F 28% 30.19 in 10.0 mi Calm Calm - N/A   Clear
5:55 PM 78.8 °F 42.8 °F 28% 30.19 in 10.0 mi West 6.9 mph - N/A   Clear
6:15 PM 78.8 °F 42.8 °F 28% 30.18 in 10.0 mi WSW 3.5 mph - N/A   Clear
6:35 PM 78.8 °F 42.8 °F 28% 30.18 in 7.0 mi WSW 5.8 mph - N/A   Clear
6:55 PM 77.0 °F 42.8 °F 29% 30.18 in 10.0 mi WNW 3.5 mph - N/A   Clear
7:15 PM 77.0 °F 44.6 °F 32% 30.19 in 10.0 mi Calm Calm - N/A   Clear
7:35 PM 73.4 °F 46.4 °F 38% 30.19 in 10.0 mi Calm Calm - N/A   Clear
7:55 PM 69.8 °F 50.0 °F 49% 30.19 in 10.0 mi Calm Calm - N/A   Clear
8:15 PM 68.0 °F 51.8 °F 56% 30.19 in 7.0 mi Calm Calm - N/A   Clear
8:35 PM 64.4 °F 53.6 °F 68% 30.19 in 10.0 mi Calm Calm - N/A   Clear
10:15 PM 62.6 °F 53.6 °F 72% 30.21 in 0.2 mi South 3.5 mph - N/A   Haze
10:35 PM 60.8 °F 53.6 °F 77% 30.21 in 1.2 mi South 3.5 mph - N/A   Haze
10:55 PM 59.0 °F 53.6 °F 82% 30.21 in 10.0 mi Calm Calm - N/A   Clear